Mitchell, SD

4:51 AM CDT on October 15, 2019 (GMT -0500)
Mitchell Municipal

Weather History for KMHE - September, 2019

Change the Weather History Date:

Tuesday, September 17, 2019

  Actual Average Record
Temperature  
Mean Temperature 84 °F 62 °F  
Max Temperature 92 °F 75 °F 97 °F (1955)
Min Temperature 76 °F 49 °F 30 °F (1916)
Degree Days  
Heating Degree Days 0 5  
Month to date heating degree days 5 49  
Since 1 July heating degree days 14 66  
Cooling Degree Days 19 2  
Month to date cooling degree days 104 59  
Year to date cooling degree days 898 804  
Growing Degree Days 33 (Base 50)    
Moisture  
Dew Point 66 °F    
Average Humidity 58    
Maximum Humidity 71    
Minimum Humidity 44    
Precipitation  
Precipitation 0.00 in 0.08 in 2.57 in (1986)
Month to date precipitation 7.60 1.34  
Year to date precipitation 32.64 17.69  
Snow  
Snow 0.00 in - 0.00 in ()
Month to date snowfall 0.0  
Since 1 July snowfall 0.0  
Since 1 September snowfall 0.0  
Snow Depth 0.00 in    
Sea Level Pressure  
Sea Level Pressure 29.72 in    
Wind  
Wind Speed 17 mph (South)    
Max Wind Speed 29 mph    
Max Gust Speed 38 mph    
Visibility 10 miles    
Events      
T = Trace of Precipitation, MM = Missing Value Source: NWS Daily Summary

Daily Weather History Graph

Daily Weather History Graph

Search for Another Location

Airport or City:

Astronomy

Sep. 17, 2019 Rise Set
Actual Time 7:13 AM CDT 7:39 PM CDT
Civil Twilight 6:44 AM CDT 8:07 PM CDT
Nautical Twilight 6:10 AM CDT 8:41 PM CDT
Astronomical Twilight 5:35 AM CDT 9:16 PM CDT
Moon 9:36 PM CDT (9/17) 10:24 AM CDT (9/17)
Length of Visible Light 13h 23m
Length of Day
12h 25m
Waning Gibbous, 89% of the Moon is Illuminated
Sep 17
Waning Gibbous
Sep 21
Last Quarter
Sep 28
New
Oct 5
First Quarter
Oct 13
Full

Hourly Weather History & Observations

Time (CDT) Temp. Heat Index Dew Point Humidity Pressure Visibility Wind Dir Wind Speed Gust Speed Precip Events Conditions
12:53 AM 77.0 °F - 68.0 °F 74% 29.76 in 10.0 mi SSE 15.0 mph - 0.00 in   Scattered Clouds
1:53 AM 77.0 °F - 66.9 °F 71% 29.74 in 10.0 mi SSE 17.3 mph 26.5 mph N/A   Partly Cloudy
2:53 AM 78.1 °F - 66.0 °F 66% 29.73 in 10.0 mi South 19.6 mph 29.9 mph N/A   Partly Cloudy
3:53 AM 77.0 °F - 64.9 °F 66% 29.73 in 10.0 mi South 17.3 mph 25.3 mph N/A   Clear
4:53 AM 75.9 °F - 64.9 °F 69% 29.73 in 10.0 mi South 13.8 mph - N/A   Partly Cloudy
5:53 AM 77.0 °F - 64.9 °F 66% 29.74 in 10.0 mi South 17.3 mph - N/A   Scattered Clouds
6:53 AM 75.9 °F - 64.9 °F 69% 29.74 in 10.0 mi South 18.4 mph 28.8 mph N/A   Clear
7:53 AM 77.0 °F - 64.9 °F 66% 29.75 in 10.0 mi South 17.3 mph 27.6 mph N/A   Clear
8:53 AM 79.0 °F - 66.0 °F 64% 29.75 in 10.0 mi South 13.8 mph 27.6 mph N/A   Clear
9:53 AM 81.0 °F 83.0 °F 66.0 °F 60% 29.75 in 10.0 mi South 18.4 mph 28.8 mph N/A   Clear
10:53 AM 82.9 °F 85.4 °F 66.9 °F 58% 29.75 in 10.0 mi South 16.1 mph 33.4 mph N/A   Clear
11:53 AM 86.0 °F 88.8 °F 66.9 °F 53% 29.74 in 10.0 mi South 18.4 mph 34.5 mph N/A   Clear
12:53 PM 88.0 °F 90.3 °F 66.0 °F 48% 29.73 in 10.0 mi South 23.0 mph 34.5 mph N/A   Clear
1:53 PM 90.0 °F 93.6 °F 68.0 °F 48% 29.71 in 10.0 mi South 20.7 mph 34.5 mph N/A   Clear
2:53 PM 89.1 °F 92.1 °F 66.9 °F 48% 29.69 in 10.0 mi South 23.0 mph 35.7 mph N/A   Clear
3:53 PM 91.9 °F 95.4 °F 66.9 °F 44% 29.68 in 10.0 mi South 21.9 mph 36.8 mph N/A   Clear
4:53 PM 91.0 °F 94.3 °F 66.9 °F 45% 29.68 in 10.0 mi South 19.6 mph 32.2 mph N/A   Clear
5:53 PM 89.1 °F 92.1 °F 66.9 °F 48% 29.68 in 10.0 mi South 18.4 mph 27.6 mph N/A   Clear
6:53 PM 86.0 °F 88.8 °F 66.9 °F 53% 29.68 in 10.0 mi SSE 16.1 mph 25.3 mph N/A   Clear
7:53 PM 82.9 °F 85.0 °F 66.0 °F 56% 29.68 in 10.0 mi SSE 17.3 mph 26.5 mph N/A   Clear
8:53 PM 81.0 °F 83.3 °F 66.9 °F 62% 29.70 in 10.0 mi SSE 12.7 mph - N/A   Clear
9:53 PM 79.0 °F - 68.0 °F 69% 29.70 in 10.0 mi SSE 13.8 mph - N/A   Clear
10:53 PM 78.1 °F - 66.9 °F 68% 29.68 in 10.0 mi SSE 17.3 mph 26.5 mph N/A   Clear
11:53 PM 78.1 °F - 66.0 °F 66% 29.68 in 10.0 mi South 15.0 mph 31.1 mph N/A   Clear